White Plains, CT

11:29 PM EDT on October 23, 2019 (GMT -0400)
Westchester County

Weather History for KHPN - August, 2019

Change the Weather History Date:

Friday, August 2, 2019

  Actual Average Record
Temperature  
Mean Temperature 74 °F -  
Max Temperature 80 °F 80 °F 98 °F (1975)
Min Temperature 69 °F 63 °F 56 °F (1992)
Cooling Degree Days 10    
Growing Degree Days 24 (Base 50)    
Moisture  
Dew Point 64 °F    
Average Humidity 69    
Maximum Humidity 83    
Minimum Humidity 47    
Precipitation  
Precipitation 0.00 in - - ()
Sea Level Pressure  
Sea Level Pressure 30.11 in    
Wind  
Wind Speed 2 mph (SE)    
Max Wind Speed 7 mph    
Max Gust Speed -    
Visibility 10 miles    
Events      
Averages and records for this station are not official NWS values.
T = Trace of Precipitation, MM = Missing Value Source: NWS Daily Summary

Daily Weather History Graph

Daily Weather History Graph

Search for Another Location

Airport or City:

Astronomy

Aug. 02, 2019 Rise Set
Actual Time 5:51 AM EDT 8:10 PM EDT
Civil Twilight 5:20 AM EDT 8:41 PM EDT
Nautical Twilight 4:42 AM EDT 9:18 PM EDT
Astronomical Twilight 4:00 AM EDT 10:00 PM EDT
Moon 7:27 AM EDT (8/2) 9:36 PM EDT (8/2)
Length of Visible Light 15h 20m
Length of Day
14h 18m
Waxing Crescent, 4% of the Moon is Illuminated
Aug 2
Waxing Crescent
Aug 7
First Quarter
Aug 15
Full
Aug 23
Last Quarter
Aug 30
New

Hourly Weather History & Observations

Time (EDT) Temp. Heat Index Dew Point Humidity Pressure Visibility Wind Dir Wind Speed Gust Speed Precip Events Conditions
12:56 AM 73.4 °F - 66.2 °F 78% 30.11 in 10.0 mi Calm Calm - N/A   Partly Cloudy
1:56 AM 73.4 °F - 66.2 °F 78% 30.11 in 10.0 mi Calm Calm - N/A   Clear
2:56 AM 73.4 °F - 66.2 °F 78% 30.11 in 10.0 mi Calm Calm - N/A   Clear
3:56 AM 73.4 °F - 66.2 °F 78% 30.11 in 10.0 mi Calm Calm - N/A   Clear
4:56 AM 73.4 °F - 66.2 °F 78% 30.11 in 10.0 mi Calm Calm - N/A   Partly Cloudy
5:56 AM 73.4 °F - 66.2 °F 78% 30.11 in 10.0 mi Calm Calm - N/A   Scattered Clouds
6:56 AM 73.4 °F - 66.2 °F 78% 30.11 in 10.0 mi Calm Calm - N/A   Partly Cloudy
7:56 AM 73.4 °F - 57.2 °F 57% 30.15 in 10.0 mi ENE 6.9 mph - N/A   Partly Cloudy
8:54 AM 73.4 °F - 57.2 °F 57% 30.16 in 10.0 mi East 6.9 mph - N/A   Scattered Clouds
10:56 AM 78.8 °F - 57.2 °F 47% 30.16 in 10.0 mi ENE 5.8 mph - N/A   Mostly Cloudy
11:56 AM 77.0 °F - 59.0 °F 54% 30.14 in 10.0 mi Variable 6.9 mph - N/A   Mostly Cloudy
12:56 PM 75.2 °F - 60.8 °F 61% 30.13 in 10.0 mi ENE 4.6 mph - N/A   Scattered Clouds
1:56 PM 78.8 °F - 64.4 °F 61% 30.11 in 10.0 mi SSE 4.6 mph - N/A   Scattered Clouds
2:56 PM 80.6 °F 82.3 °F 64.4 °F 58% 30.10 in 10.0 mi SE 4.6 mph - N/A   Partly Cloudy
3:56 PM 78.8 °F - 66.2 °F 65% 30.09 in 10.0 mi South 5.8 mph - N/A   Mostly Cloudy
4:56 PM 77.0 °F - 66.2 °F 69% 30.09 in 10.0 mi SE 5.8 mph - N/A   Mostly Cloudy
5:56 PM 77.0 °F - 66.2 °F 69% 30.09 in 10.0 mi SE 3.5 mph - N/A   Mostly Cloudy
6:56 PM 77.0 °F - 62.6 °F 61% 30.08 in 10.0 mi SSE 5.8 mph - N/A   Scattered Clouds
8:56 PM 71.6 °F - 62.6 °F 73% 30.09 in 10.0 mi SSE 3.5 mph - N/A   Clear
9:56 PM 69.8 °F - 60.8 °F 73% 30.09 in 10.0 mi SE 3.5 mph - N/A   Clear
10:56 PM 71.6 °F - 64.4 °F 78% 30.09 in 10.0 mi Calm Calm - N/A   Clear
11:52 PM 69.8 °F - 64.4 °F 83% 30.09 in 10.0 mi Calm Calm - N/A   Clear